Probability
55 61 81 77 77 81 87 87 84 84 77 71 74 77 74 74 74 71 65 68 58 55 58 65 68 58 55 48 45 42 42 45 58 58 55 55 58 52 48 42 52 52 68
55 65 81 77 81 84 87 87 87 94 77 71 68 68 74 77 77 71 61 68 55 52 55 65 58 52 55 52 45 42 39 45 42 42 45 48 55 52 52 45 58 58 61
55 61 77 81 87 81 84 84 84 84 77 74 71 68 77 74 77 74 65 61 55 52 61 68 52 48 58 58 52 52 52 52 52 48 52 45 48 55 58 58 61 58 55
52 55 61 77 81 77 74 84 84 77 74 71 68 65 68 68 71 68 71 61 55 58 55 58 45 45 55 58 55 55 52 48 45 48 45 29 32 48 55 52 58 71 61
42 55 74 81 74 74 71 77 74 77 74 65 61 61 68 65 65 65 61 61 48 55 52 52 48 42 45 42 48 48 52 48 55 48 39 39 42 55 58 58 58 58 55
42 52 71 77 74 74 77 77 74 84 71 71 65 61 61 65 68 71 61 52 52 52 52 48 52 52 48 48 45 55 61 68 55 29 29 42 52 68 61 55 55 52 58
35 45 58 71 74 74 74 77 77 74 65 65 58 58 58 68 65 65 52 55 52 55 52 52 58 48 48 52 45 52 55 52 39 32 39 45 55 77 71 65 55 52 42
39 35 55 74 74 74 68 71 74 74 68 65 65 61 71 77 65 58 52 48 52 58 55 55 52 45 52 61 48 55 58 55 32 19 26 42 58 77 74 68 61 61 58
45 45 45 55 71 71 68 74 71 68 68 68 58 65 71 71 61 58 55 55 65 55 61 65 65 48 55 58 48 52 55 65 35 32 23 32 68 74 68 65 55 52 55
39 32 39 45 55 61 61 68 68 68 68 68 61 65 65 68 68 65 68 71 65 61 65 68 68 48 52 45 52 61 55 58 23 19 29 29 65 71 58 55 65 52 48
32 32 29 45 48 42 45 52 68 71 65 65 71 74 77 68 65 65 61 84 68 68 68 68 65 58 58 55 65 58 61 23 29 23 35 58 68 61 58 58 65 61 48
23 29 32 42 39 39 42 52 61 52 58 71 71 71 71 74 65 48 65 77 71 68 65 68 68 65 61 45 48 61 39 32 29 26 39 65 65 65 65 65 65 65 58
26 35 32 32 35 39 45 45 55 58 68 65 71 68 68 68 65 58 68 65 68 61 65 65 65 45 42 48 48 48 39 29 39 26 45 68 71 68 65 65 68 58 55
29 35 32 39 55 58 65 48 48 52 65 58 68 68 71 61 65 65 68 65 71 68 68 61 61 48 45 45 42 32 39 29 42 39 52 71 71 71 65 61 65 58 55
42 39 55 55 71 74 74 74 52 68 61 55 71 65 65 61 61 65 71 65 58 58 58 61 55 55 58 55 52 42 42 48 48 32 45 68 68 71 68 65 65 55 52
48 48 61 61 65 71 71 74 74 61 74 65 68 71 74 71 71 68 68 68 71 68 65 68 61 68 58 58 61 58 48 45 48 52 45 65 71 68 58 61 58 61 58
58 61 61 61 61 68 61 71 65 61 52 68 71 71 71 74 77 74 71 71 68 74 58 58 61 65 65 61 65 55 52 45 45 55 42 55 58 61 61 58 58 58 58
65 71 61 45 61 68 71 74 71 65 74 77 77 74 71 71 71 77 74 68 71 68 65 68 58 58 58 65 61 61 52 52 52 48 48 45 45 45 61 65 58 61 61
68 74 74 77 77 71 74 74 74 74 81 81 77 74 74 71 74 74 77 71 71 65 65 52 55 55 52 52 55 58 52 52 55 42 45 42 45 48 52 52 52 55 52
74 77 81 87 87 87 84 84 81 81 81 77 81 81 77 77 74 77 71 71 61 61 65 61 55 58 58 55 42 42 45 48 48 48 42 39 39 32 42 42 45 48 48
68 81 77 77 77 84 84 81 77 77 81 81 81 77 74 74 71 74 68 71 65 65 58 61 52 55 55 58 52 48 42 42 35 39 35 39 29 29 35 42 42 48 48
65 77 81 77 74 74 81 81 81 81 74 74 71 77 74 74 71 58 68 68 61 58 58 58 58 61 61 55 55 55 39 39 39 26 32 35 35 39 35 35 42 48 42
65 71 68 81 71 71 71 68 71 71 68 71 68 77 77 68 71 71 68 68 71 61 61 61 61 55 52 58 52 48 45 45 45 39 39 35 39 45 42 42 35 45 45
68 74 77 81 77 71 65 68 61 65 65 61 65 68 71 68 68 71 65 65 68 68 61 61 58 58 55 52 55 61 48 48 48 45 42 32 35 32 39 35 39 42 39
65 71 77 74 74 71 71 68 68 61 65 61 68 68 68 65 58 68 65 68 71 71 61 61 58 58 55 52 52 52 48 48 42 45 42 42 42 39 35 42 42 35 39
65 68 65 77 77 71 68 68 65 65 68 65 68 68 65 58 58 52 58 68 71 71 71 65 58 58 55 55 52 55 52 42 42 35 35 35 35 45 45 48 39 42 39
Height
5885 5884 5884 5884 5883 5883 5883 5883 5883 5883 5883 5883 5883 5883 5883 5884 5884 5884 5885 5885 5886 5886 5887 5888 5888 5889 5890 5891 5892 5892 5892 5893 5893 5894 5894 5894 5895 5895 5895 5895 5896 5896 5896
5886 5885 5885 5885 5885 5885 5885 5884 5884 5884 5884 5884 5884 5884 5884 5885 5885 5885 5885 5886 5886 5887 5887 5888 5889 5890 5890 5891 5892 5892 5893 5893 5893 5894 5894 5895 5895 5895 5895 5895 5896 5896 5897
5886 5886 5886 5886 5886 5886 5886 5886 5886 5886 5886 5885 5885 5885 5885 5885 5886 5886 5886 5887 5887 5887 5888 5889 5890 5890 5891 5891 5892 5892 5893 5893 5894 5894 5895 5895 5895 5895 5895 5896 5896 5896 5897
5887 5887 5887 5887 5888 5888 5888 5888 5887 5887 5887 5886 5886 5886 5886 5886 5886 5887 5887 5887 5887 5888 5889 5889 5890 5890 5891 5891 5892 5892 5893 5893 5894 5895 5895 5895 5895 5895 5895 5895 5896 5896 5897
5888 5887 5888 5889 5889 5889 5889 5889 5889 5888 5888 5888 5887 5887 5887 5887 5887 5887 5887 5888 5888 5888 5889 5889 5890 5891 5891 5892 5892 5892 5893 5894 5894 5895 5895 5895 5895 5895 5895 5896 5896 5896 5897
5889 5889 5889 5890 5890 5890 5890 5890 5890 5889 5889 5889 5888 5888 5888 5888 5888 5888 5888 5888 5888 5888 5889 5890 5890 5891 5891 5892 5892 5892 5893 5894 5894 5895 5895 5895 5895 5895 5896 5896 5896 5896 5897
5892 5891 5891 5891 5891 5891 5891 5891 5890 5890 5890 5889 5889 5889 5889 5888 5888 5888 5888 5888 5889 5889 5889 5890 5890 5891 5891 5891 5892 5892 5893 5894 5894 5895 5895 5895 5895 5895 5896 5896 5896 5896 5896
5894 5893 5893 5892 5892 5892 5892 5891 5891 5891 5890 5890 5890 5890 5889 5889 5889 5889 5888 5889 5889 5889 5889 5890 5890 5890 5891 5891 5891 5892 5893 5893 5894 5894 5895 5895 5895 5895 5896 5896 5896 5896 5896
5896 5895 5894 5893 5893 5893 5893 5892 5892 5891 5891 5891 5891 5890 5890 5890 5890 5889 5889 5889 5889 5889 5889 5889 5890 5890 5890 5891 5891 5891 5892 5893 5893 5894 5894 5894 5895 5895 5895 5896 5896 5896 5896
5897 5896 5895 5894 5893 5893 5893 5893 5892 5892 5892 5891 5891 5891 5891 5890 5890 5889 5889 5889 5889 5889 5889 5889 5889 5889 5890 5890 5890 5891 5892 5892 5893 5893 5893 5894 5894 5895 5895 5895 5896 5896 5896
5899 5897 5896 5894 5894 5894 5894 5894 5893 5893 5893 5892 5892 5891 5891 5890 5890 5889 5889 5889 5888 5888 5888 5889 5889 5889 5889 5889 5890 5890 5891 5892 5892 5892 5893 5894 5894 5894 5894 5895 5895 5895 5895
5900 5899 5898 5897 5896 5895 5895 5894 5894 5894 5893 5893 5892 5891 5891 5890 5889 5889 5888 5888 5888 5888 5888 5888 5888 5889 5889 5889 5889 5890 5890 5891 5891 5890 5892 5892 5893 5893 5894 5894 5894 5895 5895
5901 5900 5899 5898 5897 5896 5896 5895 5895 5894 5894 5893 5892 5891 5891 5890 5889 5888 5888 5888 5887 5887 5888 5887 5888 5888 5888 5888 5888 5889 5889 5890 5890 5890 5891 5891 5891 5892 5893 5893 5894 5894 5894
5902 5901 5900 5899 5898 5897 5896 5896 5895 5895 5894 5893 5892 5891 5890 5890 5889 5888 5888 5888 5887 5887 5887 5887 5887 5887 5887 5887 5887 5887 5888 5889 5889 5889 5889 5890 5890 5891 5892 5892 5892 5893 5893
5904 5902 5901 5900 5899 5898 5897 5896 5896 5895 5894 5893 5892 5891 5890 5890 5889 5888 5888 5887 5887 5887 5886 5886 5886 5885 5885 5885 5886 5886 5887 5887 5887 5887 5887 5888 5889 5889 5890 5891 5891 5891 5891
5905 5904 5903 5901 5900 5899 5898 5897 5896 5895 5895 5893 5892 5892 5891 5889 5888 5888 5888 5887 5887 5886 5885 5885 5885 5884 5884 5885 5885 5885 5885 5885 5885 5885 5885 5886 5887 5888 5888 5889 5889 5889 5889
5907 5906 5904 5903 5901 5900 5899 5898 5897 5896 5895 5894 5893 5892 5891 5890 5888 5888 5887 5886 5885 5885 5884 5884 5883 5883 5883 5883 5883 5883 5883 5884 5884 5884 5884 5885 5885 5885 5886 5886 5887 5887 5887
5908 5907 5905 5904 5903 5901 5900 5899 5898 5897 5896 5895 5894 5893 5891 5890 5889 5888 5887 5886 5885 5884 5883 5883 5882 5881 5881 5880 5880 5880 5881 5881 5881 5881 5882 5883 5883 5883 5884 5884 5884 5885 5885
5909 5908 5906 5905 5904 5903 5901 5900 5899 5897 5896 5895 5894 5893 5892 5890 5889 5888 5886 5886 5885 5884 5883 5882 5881 5880 5879 5879 5878 5878 5878 5879 5879 5879 5879 5880 5880 5881 5881 5881 5881 5882 5882
5910 5909 5907 5906 5904 5903 5902 5901 5899 5898 5897 5896 5895 5893 5892 5890 5889 5888 5886 5885 5885 5883 5882 5881 5880 5879 5877 5876 5876 5876 5876 5876 5876 5876 5877 5877 5877 5878 5878 5878 5878 5878 5878
5910 5909 5907 5906 5905 5903 5902 5901 5900 5898 5897 5896 5895 5893 5892 5890 5889 5888 5886 5885 5884 5883 5881 5880 5879 5877 5876 5875 5874 5874 5874 5874 5874 5874 5874 5874 5874 5874 5874 5874 5875 5875 5875
5910 5908 5907 5906 5905 5903 5902 5901 5900 5899 5898 5896 5895 5893 5892 5890 5889 5887 5886 5884 5883 5882 5881 5879 5878 5876 5874 5873 5873 5872 5872 5872 5872 5872 5871 5871 5871 5871 5871 5871 5871 5871 5871
5909 5908 5907 5905 5904 5902 5901 5900 5899 5898 5897 5896 5894 5893 5891 5890 5888 5887 5885 5884 5882 5881 5880 5878 5876 5874 5873 5872 5871 5870 5869 5870 5870 5869 5868 5868 5867 5867 5867 5867 5867 5867 5867
5908 5907 5905 5904 5903 5901 5900 5899 5898 5896 5895 5894 5893 5891 5890 5889 5888 5886 5885 5883 5881 5880 5878 5876 5875 5873 5872 5871 5870 5868 5868 5867 5867 5866 5866 5865 5864 5864 5863 5863 5863 5862 5862
5906 5905 5904 5903 5902 5900 5899 5898 5896 5895 5894 5893 5892 5890 5889 5887 5886 5884 5883 5881 5879 5878 5876 5874 5872 5871 5869 5868 5867 5866 5865 5864 5863 5863 5862 5862 5861 5860 5859 5859 5858 5858 5858
5904 5903 5902 5901 5900 5899 5898 5896 5895 5894 5892 5891 5890 5888 5887 5885 5884 5882 5881 5879 5877 5875 5874 5872 5870 5868 5866 5865 5864 5863 5862 5861 5860 5859 5858 5858 5857 5856 5855 5854 5853 5853 5853
Wind_Speed
6 6 5 5 4 4 4 4 4 4 5 5 5 5 4 5 6 5 6 6 6 6 5 5 4 3 4 4 3 3 2 2 2 1 1 1 2 2 2 1 0 0 0
6 5 4 5 4 4 4 4 4 4 4 4 4 4 4 5 5 5 6 5 5 5 5 5 4 4 3 3 3 3 2 2 2 1 1 2 2 2 2 1 1 0 1
5 4 4 5 4 4 4 4 4 4 3 3 3 3 3 3 4 4 5 5 5 5 4 4 3 3 3 2 3 3 3 2 1 1 1 2 2 2 2 1 0 1 1
6 5 5 5 4 4 4 4 4 3 3 3 3 2 2 2 3 3 3 3 4 4 3 3 3 3 3 3 2 2 3 2 1 0 0 1 2 2 1 1 1 1 1
7 6 5 5 5 4 4 3 3 3 3 3 2 2 2 2 2 2 2 3 3 3 2 2 3 3 3 2 2 2 2 2 1 0 1 1 2 1 1 1 0 1 0
8 7 6 6 5 5 4 3 3 3 3 3 3 3 2 2 2 1 1 2 2 2 1 2 2 2 2 2 2 2 2 1 0 1 0 1 1 1 1 1 1 1 1
9 8 7 6 6 5 5 4 3 3 2 2 2 2 2 2 2 1 0 1 1 1 2 1 1 2 1 2 2 2 2 2 1 1 0 0 0 1 1 2 2 2 1
8 7 7 6 6 5 5 5 4 3 3 2 2 2 2 2 2 2 1 1 0 0 1 2 2 2 2 2 3 3 2 1 1 1 0 1 1 1 1 2 2 2 2
8 8 7 6 5 5 5 5 5 4 4 3 2 2 2 2 2 3 2 1 1 1 1 1 2 2 3 3 3 4 4 2 2 1 1 1 1 1 2 2 2 3 2
8 8 7 6 5 5 5 6 5 4 4 4 3 3 2 3 3 3 3 2 2 2 2 3 2 3 4 4 4 4 4 4 3 3 3 2 2 2 2 2 3 3 2
8 8 8 7 6 5 5 5 5 4 4 4 4 4 3 4 4 4 3 4 4 3 3 4 4 3 4 4 5 5 5 5 5 4 4 3 3 3 3 3 3 3 2
8 9 8 8 6 5 5 5 5 5 5 5 5 5 4 4 3 3 4 4 4 4 4 4 4 4 4 5 5 5 5 6 6 5 5 5 5 4 4 4 4 3 3
9 9 9 9 7 6 6 6 5 5 6 6 6 6 6 5 3 3 4 4 4 4 5 4 5 5 5 5 6 6 6 6 6 6 6 6 6 5 5 5 5 4 3
10 10 10 10 9 8 8 8 7 7 7 7 7 7 7 6 4 4 4 4 4 5 5 5 6 6 6 6 6 6 7 7 6 7 7 7 5 5 5 6 6 6 5
10 11 10 10 9 9 9 9 8 7 8 8 8 7 7 6 6 5 5 5 5 6 6 6 7 6 6 7 7 7 7 7 7 8 8 7 6 6 5 6 6 6 7
10 10 10 10 9 9 9 9 8 8 8 9 8 8 8 8 7 6 6 6 7 7 8 7 7 7 7 7 8 7 8 8 8 8 8 8 8 8 8 7 8 8 7
9 9 10 10 10 9 9 9 8 8 8 9 9 9 10 10 9 7 7 7 8 8 8 8 7 7 7 7 8 8 9 9 9 8 8 9 9 9 9 9 9 9 8
10 9 10 10 9 10 9 9 8 8 9 8 9 9 10 11 11 10 9 9 8 8 8 8 8 8 8 8 8 9 10 9 9 9 10 10 11 11 11 11 11 11 10
10 10 10 10 10 10 9 9 9 9 8 8 9 10 10 11 11 10 9 10 10 9 8 7 8 8 8 9 9 9 9 9 9 10 11 11 11 12 12 12 12 12 12
10 10 10 11 11 10 10 10 9 9 9 10 10 10 10 11 11 11 11 11 10 10 9 9 9 10 10 9 9 9 9 10 10 11 11 11 12 13 13 13 13 14 13
9 9 10 11 11 10 10 10 10 10 10 11 11 11 12 12 12 11 12 11 10 10 10 10 11 11 10 10 10 10 10 10 10 11 12 13 13 13 13 14 14 15 15
10 10 10 11 11 11 11 11 10 10 11 12 12 12 12 12 12 12 11 12 10 10 10 11 12 10 10 10 10 10 10 10 10 11 12 13 14 14 13 14 15 16 16
11 11 11 11 12 11 11 12 11 11 11 12 13 13 13 13 12 13 13 12 12 12 12 12 12 11 10 10 10 10 11 11 12 13 14 14 15 15 15 16 16 16 16
12 12 12 12 12 13 13 13 13 13 13 13 13 14 14 13 13 14 14 14 13 13 13 13 13 12 12 11 11 11 12 12 13 14 14 15 15 15 15 16 16 16 17
13 13 13 14 14 14 15 15 15 15 15 15 15 15 15 15 15 15 15 15 14 14 14 14 14 14 13 12 12 13 13 14 15 14 14 15 16 15 16 16 17 17 17
14 14 14 15 16 16 16 16 16 16 16 16 17 18 17 16 16 17 18 18 17 16 16 15 15 15 15 14 14 14 15 15 16 16 16 17 17 17 18 18 18 19 19
Wind_Direction
57 60 65 63 69 79 90 101 99 109 110 103 113 125 130 133 132 132 139 138 150 160 161 162 154 156 166 161 155 151 144 142 143 117 83 54 45 31 38 102 146 86 36
50 53 56 60 66 72 83 97 102 100 101 101 104 122 129 139 139 137 147 142 142 151 153 157 155 152 146 149 157 164 168 172 143 86 47 46 39 25 28 69 115 104 70
48 52 57 55 59 68 80 88 99 98 97 94 97 108 129 137 148 141 148 156 151 149 153 156 159 153 149 152 162 169 173 165 134 88 58 29 9 6 9 17 175 163 98
43 47 55 53 51 61 78 84 91 94 91 87 90 98 124 138 144 148 144 151 152 152 164 172 171 171 171 172 162 173 164 155 151 109 3 357 353 349 7 56 137 152 102
46 55 57 54 51 61 76 87 84 79 82 84 79 85 108 121 123 151 152 145 154 152 149 169 174 174 177 173 170 174 160 143 129 5 312 324 321 329 30 58 132 220 236
54 60 62 59 57 58 71 84 66 58 59 69 73 82 89 97 102 130 171 163 158 166 175 181 186 196 218 205 191 183 188 196 236 319 350 352 342 48 45 31 353 306 295
56 57 56 55 52 48 51 50 49 52 49 60 66 70 66 53 41 51 54 220 214 200 199 208 209 221 243 223 212 196 204 209 186 179 143 188 30 36 39 14 344 325 312
53 52 48 50 51 45 41 40 41 43 43 49 48 51 45 41 30 14 358 250 290 268 260 270 256 249 255 254 255 242 233 258 224 181 231 294 333 340 334 336 334 323 310
49 47 43 43 47 43 38 29 31 34 35 40 42 30 19 5 360 357 338 322 287 293 289 275 272 254 252 248 255 259 252 259 253 235 250 287 312 331 341 346 351 342 331
38 39 35 33 49 45 38 35 37 43 42 38 25 9 340 328 333 332 323 316 296 285 272 276 264 250 253 253 263 262 257 264 272 257 247 278 302 304 304 322 323 331 334
30 30 26 28 34 42 37 29 29 31 29 26 15 357 338 319 317 314 309 301 297 289 278 273 267 272 261 261 263 267 263 266 270 267 262 280 297 293 295 302 316 333 331
23 23 26 26 27 22 21 24 20 16 7 10 5 358 346 345 331 311 300 302 297 301 304 291 274 274 271 268 269 265 264 263 271 269 262 275 280 280 280 289 304 311 316
22 21 19 22 19 18 14 12 9 6 2 359 358 355 353 351 354 341 319 314 303 307 304 298 288 278 271 265 264 260 259 264 266 266 261 262 264 268 273 278 281 282 290
22 22 23 22 19 15 15 10 4 357 352 351 348 349 352 352 352 344 327 323 324 317 304 294 296 283 276 269 264 263 255 254 266 264 257 259 262 263 263 267 269 271 273
24 24 23 22 21 20 17 12 5 1 355 354 354 350 354 355 349 343 344 333 329 318 306 299 300 290 284 277 274 270 262 260 266 265 266 260 263 263 262 265 271 273 279
22 24 25 24 23 19 15 13 9 2 358 2 3 0 355 351 349 346 344 338 327 317 309 303 302 295 285 276 274 274 271 267 266 266 263 264 263 260 260 265 269 274 278
20 21 21 21 20 18 15 13 10 6 1 2 1 358 358 357 355 348 344 340 333 325 316 316 308 300 293 287 282 279 277 272 267 269 266 264 262 262 262 266 269 273 276
13 14 14 14 13 11 9 9 7 7 2 360 359 358 357 356 355 356 350 347 342 337 322 314 310 307 298 289 286 283 280 272 272 271 265 264 262 261 262 264 267 271 273
7 7 8 9 8 5 3 1 360 1 357 353 353 355 352 354 354 354 352 351 349 345 336 325 316 314 304 295 291 283 277 276 276 274 271 267 264 262 262 263 265 268 271
1 2 1 1 360 357 355 354 357 355 353 353 352 351 351 352 349 346 351 351 349 346 343 340 333 328 320 315 307 298 283 278 279 274 273 270 267 265 264 264 264 267 271
354 355 352 353 352 350 350 349 348 345 348 350 350 346 347 352 350 349 350 349 348 348 346 347 340 335 329 322 319 317 303 294 284 282 280 277 273 271 268 268 267 270 275
344 345 343 344 345 342 340 339 336 336 338 341 344 344 344 345 346 344 344 343 344 344 340 336 335 333 330 326 321 319 317 310 298 293 289 288 286 280 277 277 272 272 274
335 337 338 337 337 336 332 331 329 326 329 330 332 333 334 341 344 343 341 341 345 342 335 333 332 331 329 324 319 319 316 311 307 299 294 292 289 288 284 283 280 278 278
325 329 331 330 329 328 327 325 323 321 321 323 325 327 331 334 336 335 332 332 333 334 331 329 329 326 323 321 319 315 312 315 312 307 301 296 292 291 287 286 284 283 282
319 320 323 324 323 323 321 321 318 320 318 318 318 320 324 327 329 328 326 326 324 325 325 323 321 321 320 315 312 312 313 310 310 309 305 300 297 293 290 287 286 284 282
316 316 316 316 318 319 320 320 319 317 314 312 313 314 317 320 320 320 320 320 320 318 319 319 317 316 315 312 309 307 307 306 305 305 303 300 297 295 292 290 286 283 283